QPF
0.00 0.00 0.00 0.00 0.00 0.00 0.00 0.00 0.00 0.00 0.00 0.00 0.00 0.00 0.00 0.00 0.00 0.00 0.00 0.00 0.00 0.00 0.00 0.00 0.00 0.00 0.01 0.01 0.01 0.01 0.01 0.00 0.00 0.00 0.00 0.00 0.00 0.01 0.01 0.02 0.01 0.01 0.01 0.01
0.00 0.00 0.00 0.00 0.00 0.00 0.00 0.00 0.00 0.00 0.00 0.00 0.00 0.00 0.00 0.00 0.00 0.00 0.00 0.01 0.00 0.00 0.00 0.00 0.00 0.01 0.01 0.01 0.01 0.00 0.00 0.00 0.00 0.00 0.00 0.00 0.00 0.00 0.01 0.01 0.01 0.01 0.01 0.01
0.00 0.00 0.00 0.00 0.00 0.00 0.00 0.00 0.00 0.00 0.00 0.00 0.00 0.00 0.00 0.00 0.00 0.00 0.00 0.01 0.01 0.00 0.01 0.00 0.01 0.01 0.01 0.01 0.01 0.01 0.00 0.00 0.00 0.00 0.00 0.00 0.00 0.01 0.01 0.00 0.00 0.00 0.01 0.01
0.01 0.00 0.00 0.00 0.00 0.00 0.00 0.00 0.00 0.01 0.00 0.00 0.00 0.00 0.00 0.00 0.00 0.00 0.01 0.01 0.01 0.00 0.01 0.01 0.01 0.01 0.01 0.01 0.00 0.01 0.00 0.00 0.00 0.00 0.00 0.00 0.01 0.01 0.01 0.01 0.00 0.01 0.00 0.01
0.01 0.01 0.00 0.00 0.00 0.00 0.00 0.00 0.00 0.00 0.00 0.00 0.00 0.00 0.00 0.00 0.00 0.00 0.00 0.00 0.00 0.00 0.01 0.01 0.01 0.02 0.01 0.01 0.01 0.01 0.01 0.00 0.01 0.01 0.00 0.00 0.00 0.01 0.01 0.01 0.01 0.01 0.01 0.00
0.01 0.01 0.00 0.00 0.00 0.00 0.00 0.00 0.00 0.00 0.00 0.01 0.01 0.01 0.01 0.00 0.00 0.00 0.00 0.00 0.00 0.00 0.01 0.01 0.01 0.01 0.01 0.01 0.01 0.01 0.01 0.01 0.01 0.01 0.00 0.00 0.00 0.01 0.01 0.01 0.01 0.01 0.00 0.00
0.01 0.01 0.00 0.00 0.00 0.00 0.01 0.00 0.00 0.01 0.01 0.01 0.01 0.01 0.01 0.00 0.01 0.01 0.01 0.01 0.00 0.01 0.01 0.01 0.00 0.00 0.00 0.01 0.01 0.01 0.01 0.01 0.01 0.01 0.01 0.01 0.00 0.01 0.01 0.01 0.01 0.00 0.00 0.00
0.01 0.01 0.00 0.00 0.00 0.00 0.00 0.00 0.01 0.01 0.01 0.01 0.01 0.01 0.01 0.01 0.01 0.00 0.00 0.00 0.00 0.01 0.00 0.00 0.00 0.00 0.00 0.01 0.01 0.01 0.01 0.01 0.02 0.02 0.03 0.03 0.01 0.01 0.01 0.01 0.01 0.01 0.00 0.00
0.01 0.01 0.00 0.00 0.00 0.00 0.00 0.00 0.00 0.01 0.01 0.01 0.00 0.00 0.00 0.00 0.00 0.00 0.00 0.00 0.00 0.00 0.00 0.00 0.00 0.00 0.00 0.01 0.01 0.01 0.01 0.01 0.01 0.02 0.02 0.03 0.03 0.02 0.02 0.02 0.02 0.01 0.01 0.00
0.00 0.00 0.00 0.00 0.00 0.00 0.00 0.00 0.00 0.01 0.01 0.01 0.00 0.00 0.00 0.00 0.00 0.00 0.00 0.00 0.00 0.00 0.00 0.00 0.00 0.00 0.01 0.01 0.01 0.01 0.01 0.01 0.02 0.02 0.02 0.03 0.04 0.03 0.02 0.02 0.03 0.02 0.02 0.01
0.00 0.00 0.00 0.00 0.00 0.00 0.00 0.00 0.00 0.01 0.01 0.01 0.01 0.00 0.00 0.00 0.00 0.00 0.00 0.00 0.00 0.00 0.00 0.00 0.00 0.00 0.01 0.01 0.01 0.01 0.01 0.01 0.02 0.02 0.02 0.02 0.03 0.03 0.02 0.02 0.02 0.02 0.02 0.02
0.00 0.00 0.00 0.00 0.00 0.00 0.01 0.01 0.01 0.01 0.01 0.01 0.01 0.00 0.00 0.00 0.00 0.00 0.00 0.00 0.00 0.00 0.00 0.00 0.00 0.00 0.01 0.01 0.01 0.01 0.01 0.01 0.01 0.02 0.03 0.03 0.03 0.03 0.03 0.02 0.02 0.02 0.02 0.02
0.00 0.00 0.00 0.00 0.00 0.01 0.01 0.02 0.01 0.01 0.01 0.01 0.01 0.01 0.01 0.01 0.00 0.00 0.00 0.00 0.00 0.00 0.00 0.00 0.01 0.01 0.02 0.02 0.02 0.01 0.01 0.02 0.02 0.02 0.03 0.03 0.03 0.04 0.04 0.04 0.04 0.03 0.03 0.02
0.00 0.00 0.00 0.00 0.01 0.01 0.01 0.01 0.01 0.01 0.01 0.01 0.01 0.01 0.01 0.01 0.00 0.00 0.00 0.01 0.00 0.00 0.00 0.01 0.02 0.02 0.02 0.02 0.02 0.01 0.02 0.02 0.02 0.03 0.03 0.03 0.03 0.02 0.02 0.02 0.02 0.02 0.02 0.02
0.01 0.01 0.01 0.01 0.01 0.01 0.01 0.01 0.01 0.01 0.01 0.01 0.01 0.01 0.01 0.01 0.00 0.00 0.01 0.01 0.01 0.01 0.01 0.01 0.01 0.02 0.02 0.02 0.02 0.03 0.03 0.02 0.02 0.02 0.02 0.02 0.01 0.01 0.01 0.01 0.01 0.01 0.01 0.01
0.01 0.01 0.01 0.01 0.01 0.00 0.00 0.00 0.00 0.01 0.01 0.02 0.01 0.01 0.00 0.01 0.01 0.00 0.01 0.01 0.01 0.01 0.01 0.01 0.01 0.02 0.03 0.04 0.04 0.03 0.04 0.03 0.03 0.02 0.02 0.02 0.01 0.01 0.01 0.02 0.01 0.01 0.01 0.01
0.01 0.01 0.01 0.01 0.00 0.01 0.01 0.00 0.00 0.00 0.01 0.01 0.02 0.01 0.01 0.00 0.00 0.00 0.00 0.01 0.01 0.01 0.01 0.01 0.02 0.02 0.03 0.06 0.05 0.04 0.04 0.05 0.04 0.03 0.02 0.03 0.02 0.01 0.01 0.01 0.01 0.01 0.01 0.01
0.01 0.01 0.01 0.01 0.01 0.01 0.01 0.00 0.00 0.00 0.01 0.01 0.01 0.01 0.01 0.01 0.01 0.00 0.00 0.01 0.01 0.01 0.01 0.01 0.02 0.02 0.03 0.05 0.07 0.05 0.04 0.05 0.04 0.04 0.04 0.03 0.03 0.01 0.01 0.01 0.01 0.01 0.01 0.02
0.00 0.00 0.01 0.01 0.01 0.01 0.00 0.00 0.00 0.00 0.01 0.01 0.01 0.01 0.01 0.01 0.01 0.01 0.01 0.01 0.01 0.01 0.01 0.02 0.04 0.02 0.02 0.04 0.06 0.05 0.04 0.04 0.04 0.04 0.03 0.03 0.02 0.01 0.01 0.01 0.01 0.02 0.02 0.02
0.00 0.00 0.01 0.01 0.01 0.00 0.00 0.00 0.00 0.01 0.01 0.01 0.01 0.01 0.01 0.01 0.01 0.01 0.02 0.01 0.01 0.02 0.03 0.04 0.04 0.04 0.03 0.04 0.04 0.05 0.05 0.05 0.04 0.03 0.02 0.02 0.01 0.01 0.01 0.01 0.02 0.02 0.02 0.03
0.01 0.01 0.01 0.01 0.01 0.00 0.00 0.00 0.01 0.01 0.01 0.01 0.01 0.01 0.01 0.02 0.02 0.02 0.02 0.02 0.02 0.04 0.04 0.05 0.05 0.05 0.04 0.03 0.03 0.04 0.05 0.06 0.04 0.03 0.02 0.02 0.01 0.01 0.02 0.02 0.02 0.02 0.02 0.02
0.01 0.01 0.01 0.01 0.00 0.00 0.00 0.00 0.01 0.01 0.01 0.01 0.01 0.02 0.02 0.02 0.02 0.03 0.03 0.04 0.05 0.06 0.06 0.06 0.07 0.06 0.05 0.03 0.02 0.02 0.03 0.04 0.04 0.04 0.04 0.03 0.02 0.03 0.02 0.02 0.02 0.02 0.01 0.01
0.01 0.02 0.01 0.01 0.01 0.01 0.01 0.01 0.01 0.01 0.01 0.01 0.01 0.02 0.02 0.02 0.03 0.03 0.04 0.04 0.06 0.06 0.05 0.06 0.07 0.06 0.04 0.03 0.02 0.02 0.02 0.03 0.03 0.05 0.06 0.06 0.06 0.05 0.04 0.02 0.02 0.02 0.01 0.01
0.02 0.02 0.02 0.01 0.01 0.01 0.01 0.01 0.01 0.01 0.01 0.02 0.02 0.02 0.02 0.03 0.03 0.03 0.03 0.04 0.06 0.06 0.05 0.07 0.07 0.06 0.04 0.03 0.02 0.01 0.01 0.02 0.02 0.03 0.04 0.05 0.06 0.06 0.06 0.05 0.04 0.03 0.03 0.03
0.04 0.04 0.03 0.02 0.02 0.02 0.02 0.02 0.01 0.02 0.02 0.03 0.03 0.02 0.02 0.03 0.04 0.04 0.04 0.04 0.05 0.06 0.05 0.06 0.05 0.04 0.03 0.03 0.02 0.02 0.02 0.02 0.02 0.02 0.02 0.02 0.03 0.04 0.04 0.04 0.04 0.05 0.05 0.05
0.04 0.04 0.04 0.03 0.02 0.02 0.02 0.02 0.02 0.02 0.04 0.04 0.03 0.03 0.02 0.03 0.04 0.04 0.04 0.05 0.05 0.05 0.04 0.04 0.04 0.03 0.02 0.02 0.02 0.02 0.02 0.02 0.02 0.02 0.02 0.02 0.02 0.02 0.02 0.01 0.01 0.01 0.02 0.02
0.04 0.04 0.04 0.03 0.03 0.03 0.02 0.02 0.03 0.03 0.04 0.04 0.03 0.03 0.03 0.03 0.02 0.03 0.04 0.04 0.04 0.04 0.03 0.03 0.02 0.03 0.02 0.02 0.02 0.02 0.02 0.02 0.03 0.03 0.02 0.02 0.02 0.02 0.01 0.01 0.01 0.01 0.01 0.02
MSLP
1021.70 1021.99 1022.27 1022.54 1022.75 1022.87 1022.84 1022.65 1022.27 1021.71 1020.97 1020.12 1019.20 1018.26 1017.39 1016.60 1015.95 1015.45 1015.10 1014.89 1014.80 1014.82 1014.92 1015.10 1015.34 1015.63 1015.95 1016.30 1016.66 1017.00 1017.31 1017.58 1017.79 1017.93 1018.02 1018.07 1018.09 1018.09 1018.10 1018.13 1018.17 1018.24 1018.32 1018.42
1022.10 1022.25 1022.35 1022.38 1022.34 1022.21 1021.98 1021.63 1021.18 1020.63 1020.00 1019.30 1018.58 1017.85 1017.16 1016.52 1015.95 1015.46 1015.05 1014.73 1014.51 1014.38 1014.35 1014.42 1014.60 1014.87 1015.22 1015.62 1016.06 1016.50 1016.91 1017.26 1017.55 1017.77 1017.92 1018.01 1018.07 1018.12 1018.17 1018.23 1018.31 1018.40 1018.51 1018.62
1022.46 1022.47 1022.38 1022.20 1021.94 1021.60 1021.19 1020.73 1020.23 1019.70 1019.16 1018.61 1018.07 1017.53 1017.00 1016.48 1015.98 1015.49 1015.03 1014.61 1014.25 1013.97 1013.80 1013.75 1013.84 1014.06 1014.40 1014.84 1015.32 1015.83 1016.32 1016.75 1017.12 1017.42 1017.64 1017.81 1017.94 1018.05 1018.16 1018.27 1018.40 1018.53 1018.66 1018.78
1022.75 1022.63 1022.38 1022.02 1021.58 1021.08 1020.54 1020.00 1019.47 1018.97 1018.51 1018.08 1017.68 1017.29 1016.89 1016.46 1016.00 1015.51 1014.99 1014.48 1014.00 1013.59 1013.29 1013.13 1013.12 1013.28 1013.58 1014.01 1014.51 1015.06 1015.60 1016.10 1016.54 1016.91 1017.21 1017.46 1017.67 1017.86 1018.04 1018.22 1018.40 1018.58 1018.74 1018.89
1022.94 1022.69 1022.31 1021.82 1021.25 1020.63 1020.02 1019.43 1018.89 1018.42 1018.02 1017.69 1017.38 1017.09 1016.77 1016.41 1015.98 1015.48 1014.92 1014.33 1013.76 1013.25 1012.84 1012.58 1012.48 1012.57 1012.82 1013.21 1013.71 1014.26 1014.83 1015.37 1015.87 1016.30 1016.68 1017.00 1017.29 1017.56 1017.81 1018.06 1018.31 1018.53 1018.74 1018.91
1022.96 1022.61 1022.13 1021.55 1020.91 1020.24 1019.58 1018.98 1018.45 1018.01 1017.66 1017.38 1017.14 1016.90 1016.63 1016.29 1015.88 1015.37 1014.79 1014.16 1013.53 1012.95 1012.48 1012.14 1011.97 1011.99 1012.18 1012.53 1012.99 1013.52 1014.08 1014.64 1015.17 1015.65 1016.08 1016.47 1016.83 1017.17 1017.49 1017.80 1018.10 1018.37 1018.62 1018.82
1022.78 1022.35 1021.81 1021.19 1020.52 1019.84 1019.19 1018.61 1018.10 1017.69 1017.37 1017.11 1016.89 1016.68 1016.43 1016.10 1015.69 1015.19 1014.61 1013.97 1013.32 1012.72 1012.20 1011.82 1011.60 1011.56 1011.69 1011.97 1012.38 1012.87 1013.40 1013.95 1014.48 1014.98 1015.45 1015.89 1016.30 1016.69 1017.06 1017.42 1017.76 1018.08 1018.36 1018.60
1022.39 1021.90 1021.34 1020.71 1020.06 1019.41 1018.80 1018.26 1017.79 1017.40 1017.10 1016.85 1016.64 1016.42 1016.17 1015.85 1015.45 1014.96 1014.39 1013.78 1013.15 1012.55 1012.03 1011.62 1011.37 1011.27 1011.33 1011.55 1011.88 1012.31 1012.79 1013.30 1013.82 1014.32 1014.81 1015.26 1015.70 1016.13 1016.53 1016.92 1017.29 1017.63 1017.94 1018.21
1021.80 1021.29 1020.72 1020.13 1019.53 1018.94 1018.40 1017.91 1017.49 1017.13 1016.84 1016.60 1016.37 1016.15 1015.89 1015.57 1015.18 1014.71 1014.18 1013.60 1013.01 1012.44 1011.93 1011.52 1011.23 1011.08 1011.07 1011.21 1011.46 1011.81 1012.22 1012.68 1013.16 1013.65 1014.13 1014.59 1015.04 1015.48 1015.89 1016.29 1016.67 1017.02 1017.35 1017.65
1021.06 1020.55 1020.01 1019.48 1018.95 1018.45 1017.98 1017.57 1017.19 1016.87 1016.59 1016.34 1016.11 1015.87 1015.60 1015.28 1014.91 1014.47 1013.98 1013.45 1012.90 1012.36 1011.87 1011.45 1011.12 1010.91 1010.83 1010.88 1011.03 1011.29 1011.64 1012.03 1012.47 1012.93 1013.39 1013.85 1014.30 1014.74 1015.15 1015.54 1015.92 1016.27 1016.61 1016.93
1020.23 1019.74 1019.26 1018.80 1018.36 1017.95 1017.57 1017.22 1016.90 1016.61 1016.34 1016.09 1015.85 1015.59 1015.32 1015.01 1014.65 1014.25 1013.79 1013.30 1012.79 1012.27 1011.78 1011.34 1010.97 1010.69 1010.52 1010.47 1010.53 1010.70 1010.97 1011.31 1011.70 1012.13 1012.59 1013.04 1013.48 1013.91 1014.31 1014.69 1015.06 1015.40 1015.74 1016.07
1019.37 1018.92 1018.50 1018.12 1017.77 1017.44 1017.14 1016.85 1016.58 1016.32 1016.06 1015.81 1015.56 1015.29 1015.01 1014.71 1014.37 1013.99 1013.56 1013.10 1012.61 1012.09 1011.59 1011.11 1010.68 1010.33 1010.07 1009.92 1009.89 1009.98 1010.17 1010.46 1010.83 1011.25 1011.69 1012.15 1012.60 1013.02 1013.42 1013.79 1014.13 1014.47 1014.80 1015.13
1018.53 1018.12 1017.76 1017.45 1017.17 1016.91 1016.67 1016.43 1016.20 1015.95 1015.70 1015.45 1015.18 1014.92 1014.63 1014.33 1014.01 1013.64 1013.23 1012.78 1012.29 1011.77 1011.23 1010.70 1010.21 1009.77 1009.43 1009.19 1009.09 1009.11 1009.25 1009.51 1009.86 1010.28 1010.74 1011.21 1011.67 1012.11 1012.51 1012.87 1013.21 1013.53 1013.85 1014.18
1017.71 1017.34 1017.03 1016.76 1016.53 1016.32 1016.11 1015.90 1015.68 1015.44 1015.19 1014.93 1014.66 1014.39 1014.11 1013.81 1013.49 1013.14 1012.74 1012.29 1011.79 1011.25 1010.67 1010.09 1009.53 1009.03 1008.61 1008.30 1008.13 1008.11 1008.23 1008.48 1008.84 1009.28 1009.77 1010.27 1010.76 1011.22 1011.63 1012.00 1012.33 1012.64 1012.94 1013.27
1016.91 1016.56 1016.26 1016.02 1015.81 1015.61 1015.40 1015.19 1014.96 1014.72 1014.46 1014.19 1013.92 1013.65 1013.38 1013.09 1012.79 1012.45 1012.06 1011.61 1011.09 1010.53 1009.92 1009.29 1008.69 1008.13 1007.66 1007.31 1007.11 1007.06 1007.18 1007.44 1007.82 1008.30 1008.83 1009.37 1009.90 1010.38 1010.82 1011.20 1011.53 1011.83 1012.13 1012.43
1016.11 1015.74 1015.44 1015.18 1014.95 1014.73 1014.51 1014.27 1014.03 1013.77 1013.49 1013.23 1012.96 1012.70 1012.44 1012.18 1011.89 1011.57 1011.19 1010.75 1010.23 1009.66 1009.03 1008.38 1007.75 1007.16 1006.67 1006.30 1006.09 1006.05 1006.18 1006.46 1006.88 1007.39 1007.96 1008.54 1009.11 1009.62 1010.08 1010.48 1010.81 1011.11 1011.39 1011.67
1015.28 1014.88 1014.53 1014.23 1013.96 1013.69 1013.43 1013.16 1012.88 1012.60 1012.33 1012.06 1011.81 1011.58 1011.35 1011.11 1010.86 1010.57 1010.21 1009.79 1009.29 1008.72 1008.10 1007.45 1006.82 1006.24 1005.74 1005.39 1005.19 1005.16 1005.31 1005.62 1006.06 1006.61 1007.20 1007.82 1008.41 1008.94 1009.42 1009.82 1010.16 1010.45 1010.72 1010.98
1014.43 1013.97 1013.56 1013.20 1012.85 1012.53 1012.22 1011.91 1011.60 1011.31 1011.05 1010.80 1010.58 1010.38 1010.20 1010.01 1009.80 1009.55 1009.24 1008.85 1008.39 1007.85 1007.25 1006.63 1006.02 1005.46 1004.99 1004.66 1004.48 1004.48 1004.64 1004.97 1005.42 1005.97 1006.58 1007.19 1007.79 1008.33 1008.80 1009.20 1009.54 1009.82 1010.07 1010.31
1013.59 1013.05 1012.57 1012.13 1011.72 1011.33 1010.97 1010.63 1010.31 1010.03 1009.78 1009.57 1009.40 1009.26 1009.13 1009.00 1008.85 1008.66 1008.40 1008.06 1007.64 1007.14 1006.59 1006.02 1005.45 1004.93 1004.50 1004.19 1004.04 1004.05 1004.22 1004.53 1004.97 1005.50 1006.08 1006.67 1007.24 1007.76 1008.21 1008.59 1008.92 1009.18 1009.42 1009.63
1012.80 1012.19 1011.63 1011.11 1010.64 1010.21 1009.81 1009.45 1009.14 1008.88 1008.67 1008.51 1008.40 1008.33 1008.27 1008.21 1008.13 1007.99 1007.79 1007.51 1007.14 1006.70 1006.20 1005.67 1005.15 1004.68 1004.29 1004.01 1003.87 1003.88 1004.03 1004.32 1004.72 1005.20 1005.72 1006.25 1006.76 1007.23 1007.64 1007.99 1008.28 1008.53 1008.74 1008.93
1012.11 1011.44 1010.82 1010.24 1009.72 1009.25 1008.84 1008.49 1008.20 1007.98 1007.82 1007.73 1007.69 1007.69 1007.71 1007.71 1007.69 1007.61 1007.46 1007.23 1006.92 1006.52 1006.08 1005.60 1005.13 1004.70 1004.34 1004.09 1003.95 1003.95 1004.07 1004.31 1004.64 1005.04 1005.48 1005.93 1006.36 1006.75 1007.10 1007.40 1007.65 1007.87 1008.05 1008.22
1011.57 1010.85 1010.19 1009.58 1009.03 1008.55 1008.14 1007.81 1007.56 1007.38 1007.29 1007.26 1007.29 1007.36 1007.44 1007.51 1007.53 1007.51 1007.40 1007.21 1006.94 1006.60 1006.20 1005.77 1005.35 1004.96 1004.63 1004.39 1004.25 1004.22 1004.30 1004.48 1004.73 1005.04 1005.38 1005.73 1006.07 1006.37 1006.65 1006.88 1007.09 1007.26 1007.41 1007.55
1011.20 1010.46 1009.78 1009.16 1008.61 1008.13 1007.73 1007.43 1007.21 1007.09 1007.05 1007.09 1007.17 1007.29 1007.42 1007.53 1007.60 1007.61 1007.54 1007.38 1007.15 1006.84 1006.49 1006.11 1005.72 1005.37 1005.07 1004.84 1004.70 1004.65 1004.69 1004.81 1004.98 1005.20 1005.44 1005.69 1005.92 1006.14 1006.33 1006.50 1006.65 1006.77 1006.89 1007.00
1010.99 1010.27 1009.59 1008.97 1008.42 1007.96 1007.58 1007.31 1007.13 1007.04 1007.05 1007.12 1007.25 1007.41 1007.57 1007.71 1007.80 1007.83 1007.78 1007.65 1007.45 1007.18 1006.86 1006.53 1006.19 1005.88 1005.61 1005.40 1005.27 1005.21 1005.21 1005.28 1005.38 1005.52 1005.67 1005.82 1005.97 1006.10 1006.21 1006.31 1006.40 1006.48 1006.56 1006.64
1010.93 1010.24 1009.59 1008.98 1008.45 1008.00 1007.64 1007.38 1007.22 1007.16 1007.19 1007.28 1007.43 1007.60 1007.77 1007.92 1008.02 1008.07 1008.04 1007.93 1007.76 1007.53 1007.26 1006.97 1006.69 1006.42 1006.20 1006.03 1005.91 1005.85 1005.84 1005.87 1005.93 1006.00 1006.08 1006.16 1006.22 1006.28 1006.32 1006.36 1006.40 1006.43 1006.48 1006.53
1011.00 1010.35 1009.73 1009.14 1008.63 1008.19 1007.83 1007.58 1007.42 1007.37 1007.39 1007.49 1007.63 1007.80 1007.97 1008.12 1008.22 1008.27 1008.26 1008.18 1008.05 1007.86 1007.65 1007.42 1007.19 1006.99 1006.82 1006.69 1006.61 1006.57 1006.56 1006.57 1006.60 1006.64 1006.67 1006.69 1006.70 1006.69 1006.68 1006.67 1006.66 1006.66 1006.67 1006.70
1011.16 1010.56 1009.97 1009.41 1008.90 1008.46 1008.10 1007.84 1007.67 1007.60 1007.61 1007.69 1007.81 1007.97 1008.13 1008.27 1008.38 1008.45 1008.45 1008.41 1008.32 1008.19 1008.04 1007.88 1007.72 1007.59 1007.48 1007.41 1007.36 1007.35 1007.35 1007.37 1007.39 1007.40 1007.41 1007.39 1007.36 1007.32 1007.27 1007.22 1007.17 1007.15 1007.14 1007.16
Thickness
5663 5671 5672 5674 5675 5675 5672 5670 5665 5675 5680 5694 5702 5706 5709 5711 5712 5711 5710 5710 5709 5707 5706 5705 5703 5701 5700 5698 5696 5694 5691 5689 5688 5687 5685 5684 5683 5683 5683 5682 5682 5681 5680 5679
5655 5664 5665 5665 5671 5672 5672 5673 5673 5677 5681 5698 5702 5703 5704 5705 5706 5706 5706 5707 5707 5705 5704 5702 5701 5700 5698 5696 5694 5692 5690 5688 5687 5685 5683 5682 5681 5681 5680 5680 5679 5678 5677 5676
5637 5649 5653 5652 5669 5670 5672 5676 5676 5673 5685 5693 5695 5697 5699 5701 5702 5702 5703 5704 5703 5703 5702 5702 5701 5699 5697 5695 5693 5690 5688 5686 5685 5683 5681 5680 5680 5678 5677 5677 5676 5675 5674 5673
5625 5635 5631 5661 5678 5678 5674 5677 5679 5682 5687 5689 5692 5695 5698 5700 5699 5699 5700 5700 5701 5701 5700 5700 5699 5697 5695 5693 5690 5688 5686 5684 5683 5681 5680 5678 5676 5675 5675 5674 5673 5672 5671 5671
5615 5619 5632 5655 5669 5670 5667 5668 5677 5678 5682 5685 5688 5688 5689 5696 5697 5698 5698 5699 5699 5699 5698 5697 5695 5694 5691 5689 5687 5685 5683 5682 5681 5680 5678 5676 5674 5673 5673 5672 5670 5669 5669 5668
5610 5613 5620 5648 5668 5673 5666 5657 5674 5674 5675 5677 5677 5669 5679 5692 5693 5694 5695 5695 5695 5694 5693 5692 5692 5690 5687 5684 5683 5682 5682 5682 5680 5679 5677 5675 5673 5672 5671 5670 5668 5667 5666 5666
5605 5608 5624 5651 5662 5663 5644 5651 5670 5671 5670 5670 5670 5674 5683 5688 5688 5690 5691 5691 5691 5690 5688 5688 5687 5686 5683 5681 5680 5681 5681 5679 5677 5676 5675 5674 5672 5670 5668 5666 5664 5663 5662 5662
5602 5603 5620 5651 5652 5647 5650 5660 5664 5665 5665 5665 5668 5673 5677 5680 5682 5684 5684 5685 5686 5684 5683 5683 5682 5681 5679 5678 5680 5678 5677 5675 5674 5673 5672 5671 5668 5666 5664 5662 5660 5658 5657 5657
5613 5621 5636 5642 5646 5650 5652 5652 5656 5657 5661 5662 5663 5665 5669 5673 5675 5677 5679 5679 5680 5679 5678 5678 5677 5677 5675 5676 5676 5674 5672 5671 5670 5669 5667 5666 5664 5661 5659 5658 5656 5654 5653 5652
5608 5621 5629 5634 5639 5642 5645 5647 5650 5653 5656 5657 5658 5661 5663 5666 5668 5670 5673 5673 5673 5673 5672 5672 5672 5672 5672 5672 5671 5670 5667 5666 5665 5664 5662 5661 5660 5658 5655 5654 5653 5651 5650 5649
5603 5613 5620 5627 5631 5635 5638 5640 5643 5647 5651 5652 5654 5656 5658 5660 5663 5665 5666 5667 5668 5668 5667 5667 5667 5667 5667 5667 5667 5664 5662 5661 5660 5659 5658 5656 5655 5653 5652 5652 5653 5651 5649 5648
5600 5610 5610 5618 5626 5628 5629 5633 5636 5639 5643 5647 5649 5651 5653 5656 5658 5660 5660 5662 5662 5662 5662 5662 5662 5662 5662 5662 5661 5659 5657 5655 5654 5653 5652 5651 5649 5646 5646 5647 5647 5647 5647 5646
5603 5608 5609 5615 5619 5622 5623 5627 5630 5633 5636 5639 5644 5646 5648 5650 5652 5654 5655 5656 5656 5657 5658 5657 5657 5657 5657 5657 5656 5655 5653 5651 5650 5649 5648 5646 5644 5642 5639 5639 5639 5639 5640 5640
5599 5601 5603 5608 5612 5616 5618 5621 5624 5627 5630 5633 5637 5640 5642 5644 5645 5646 5648 5650 5651 5651 5651 5651 5651 5651 5652 5652 5652 5651 5649 5648 5647 5645 5643 5642 5640 5639 5637 5634 5632 5630 5632 5633
5594 5596 5599 5603 5606 5609 5611 5614 5616 5619 5623 5626 5630 5633 5635 5637 5639 5641 5643 5644 5644 5644 5645 5645 5645 5646 5647 5647 5647 5646 5645 5643 5641 5640 5638 5637 5635 5633 5631 5630 5627 5625 5625 5625
5588 5591 5594 5596 5599 5602 5604 5607 5609 5613 5616 5619 5622 5626 5628 5630 5632 5635 5636 5637 5637 5637 5639 5640 5641 5641 5642 5642 5641 5640 5639 5639 5637 5634 5632 5630 5628 5627 5625 5623 5621 5619 5619 5618
5579 5582 5586 5588 5592 5595 5598 5601 5604 5608 5610 5614 5617 5619 5621 5622 5624 5627 5629 5631 5632 5633 5635 5635 5636 5637 5636 5636 5636 5635 5633 5632 5631 5629 5626 5625 5623 5621 5620 5618 5616 5614 5613 5613
5580 5582 5584 5586 5589 5590 5592 5596 5599 5601 5605 5609 5611 5612 5613 5615 5617 5620 5622 5623 5624 5626 5628 5630 5631 5631 5631 5630 5630 5630 5628 5626 5625 5623 5621 5619 5617 5615 5613 5612 5611 5609 5608 5607
5578 5580 5581 5583 5585 5585 5587 5590 5593 5596 5599 5602 5603 5605 5607 5609 5611 5613 5614 5615 5617 5618 5621 5623 5624 5624 5624 5625 5624 5623 5622 5620 5618 5617 5615 5614 5611 5609 5607 5606 5605 5603 5602 5601
5574 5577 5578 5579 5581 5581 5583 5585 5587 5590 5593 5595 5597 5598 5600 5602 5604 5606 5607 5608 5611 5614 5615 5616 5617 5617 5618 5618 5618 5616 5616 5615 5613 5611 5609 5607 5605 5603 5602 5600 5599 5597 5596 5594
5570 5572 5574 5574 5576 5577 5578 5580 5581 5583 5587 5589 5590 5592 5594 5595 5597 5599 5600 5600 5604 5606 5608 5609 5610 5610 5611 5611 5610 5609 5609 5607 5606 5605 5603 5601 5599 5598 5596 5595 5593 5591 5589 5587
5564 5566 5567 5568 5569 5570 5572 5573 5575 5578 5580 5582 5584 5586 5588 5588 5589 5590 5592 5595 5597 5599 5600 5601 5602 5603 5604 5604 5602 5602 5601 5600 5599 5598 5596 5595 5593 5592 5589 5588 5586 5584 5582 5580
5556 5558 5559 5561 5563 5564 5565 5567 5569 5572 5574 5576 5578 5580 5581 5582 5583 5584 5585 5587 5590 5592 5593 5594 5596 5597 5596 5595 5594 5594 5593 5592 5591 5590 5589 5587 5586 5584 5582 5580 5578 5576 5574 5572
5549 5551 5553 5554 5556 5557 5558 5561 5563 5565 5567 5570 5572 5574 5576 5576 5576 5577 5580 5582 5584 5585 5585 5586 5588 5588 5587 5586 5586 5585 5584 5584 5583 5582 5580 5578 5577 5575 5573 5571 5569 5567 5566 5564
5542 5544 5546 5548 5549 5551 5553 5555 5556 5558 5560 5563 5564 5567 5569 5570 5570 5572 5573 5575 5576 5577 5576 5577 5579 5578 5578 5577 5576 5575 5575 5574 5574 5572 5571 5569 5567 5565 5564 5562 5561 5559 5558 5556
5535 5537 5540 5542 5544 5546 5547 5549 5550 5551 5553 5555 5557 5558 5560 5562 5563 5564 5565 5566 5566 5567 5566 5566 5567 5568 5567 5567 5567 5566 5565 5564 5563 5562 5561 5560 5558 5557 5555 5554 5552 5551 5549 5547
5528 5530 5533 5535 5537 5539 5541 5543 5544 5546 5548 5550 5550 5551 5552 5553 5554 5555 5556 5556 5556 5556 5556 5557 5557 5557 5556 5557 5556 5556 5555 5554 5552 5551 5551 5550 5549 5547 5546 5545 5544 5542 5540 5538